This is the latest recevied weather packets stored in our database for station/object M0SDM-10. If no packets are shown the sender has not sent any weather packets the latest 1 day(s).
| Time | Temp. | Humidity | Pressure | Rain* | Wind** | Luminosity | Snow |
|---|---|---|---|---|---|---|---|
| 1777726664 | 17.22° C | 59% | 1004.3 hPa | - | - | - | - |
| 1777724864 | 17.22° C | 60% | 1004.7 hPa | - | - | - | - |
| 1777723064 | 17.22° C | 59% | 1005 hPa | - | - | - | - |
| 1777721264 | 16.67° C | 60% | 1005.6 hPa | - | - | - | - |
| 1777719464 | 16.67° C | 59% | 1005.7 hPa | - | - | - | - |
| 1777717664 | 16.11° C | 59% | 1005.8 hPa | - | - | - | - |
| 1777715864 | 16.11° C | 60% | 1006.2 hPa | - | - | - | - |
| 1777714063 | 15.56° C | 62% | 1006.5 hPa | - | - | - | - |
| 1777712263 | 15° C | 66% | 1006.5 hPa | - | - | - | - |
| 1777710463 | 14.44° C | 65% | 1006.6 hPa | - | - | - | - |
| 1777708663 | 14.44° C | 66% | 1006.5 hPa | - | - | - | - |
| 1777706863 | 13.89° C | 66% | 1006.6 hPa | - | - | - | - |
| 1777705063 | 13.89° C | 66% | 1006.6 hPa | - | - | - | - |
| 1777703263 | 14.44° C | 65% | 1006.5 hPa | - | - | - | - |
| 1777701463 | 14.44° C | 65% | 1006.4 hPa | - | - | - | - |
| 1777699662 | 14.44° C | 65% | 1006.3 hPa | - | - | - | - |
| 1777697862 | 14.44° C | 65% | 1006.3 hPa | - | - | - | - |
| 1777696062 | 14.44° C | 65% | 1006.2 hPa | - | - | - | - |
| 1777694262 | 15° C | 65% | 1006.3 hPa | - | - | - | - |
| 1777692462 | 15° C | 65% | 1006.4 hPa | - | - | - | - |
| 1777690703 | 15.56° C | 65% | 1006.4 hPa | - | - | - | - |
| 1777690662 | 15.56° C | 65% | 1006.4 hPa | - | - | - | - |
| 1777688862 | 15.56° C | 64% | 1006.6 hPa | - | - | - | - |
* Rain since midnight (hover to see other rain measurements)
** Current wind speed in m/s (hover to see current wind gust speed)